Simultaneous Nadir Overpasses (SNOs) Predictions

Prediction of SNOs between LANDSAT-8 and NPP Satellite Orbit:

Table of predicted SNOs for the next 14.0 days since TLE Epoch: 6/4/2016
Index Date (LANDSAT-8) Time (LANDSAT-8) Lat,Lon (LANDSAT-8) SZA (LANDSAT-8 ) Date (NPP) Time (NPP) Lat,Lon (NPP) SZA (NPP ) Distance(km) Time Diff (sec)
1 06/04/2016 06:08:37 -70.21, -95.60 132.35 06/04/2016 06:08:04 -70.23, -95.64 132.33 2.34 33
2 06/04/2016 06:58:04 70.11, 71.90 47.55 06/04/2016 06:58:48 70.09, 71.88 47.53 1.90 44
3 06/06/2016 21:35:32 70.52,-146.90 47.68 06/06/2016 21:34:21 70.57,-147.73 47.76 31.34 71
4 06/06/2016 22:25:06 -70.19, 20.25 132.65 06/06/2016 22:24:57 -70.18, 20.20 132.65 1.84 9
5 06/06/2016 23:14:34 70.03,-172.33 47.20 06/06/2016 23:15:41 70.05,-172.29 47.22 2.92 67
6 06/09/2016 13:52:07 70.22, -31.46 47.15 06/09/2016 13:51:09 70.22, -31.40 47.17 2.46 58
7 06/09/2016 14:41:36 -70.16, 136.09 132.90 06/09/2016 14:41:51 -70.14, 136.04 132.92 3.11 15
8 06/09/2016 15:31:15 69.39, -57.33 46.36 06/09/2016 15:32:23 69.38, -55.52 46.29 70.59 68
9 06/12/2016 06:08:37 70.18, 84.36 46.94 06/12/2016 06:08:03 70.18, 84.42 46.95 2.35 34
10 06/12/2016 06:58:07 -70.07,-108.15 133.17 06/12/2016 06:58:45 -70.10,-108.13 133.14 3.31 38
11 06/14/2016 21:35:32 -70.68, 33.35 132.71 06/14/2016 21:34:22 -70.74, 32.00 132.60 50.01 70
12 06/14/2016 22:25:07 70.13,-159.81 46.76 06/14/2016 22:24:57 70.15,-159.76 46.79 3.07 10
13 06/14/2016 23:14:36 -70.09, 7.75
